Location: Drocourt
(49.0571°N, 1.7669°E)
Time: 14:18:09
(UTC+00:00)

SR - Pass Details

Date: 22 April 2024
Orbit: 579 x 859 km, 66.7° (Epoch: 28 May)

Event Time Altitude Azimuth Distance (km) Brightness Sun altitude
Rises 04:53:33 0° 297° (WNW) 3,199 ? 0.1°
Maximum altitude 04:59:19 10° 348° (NNW) 2,140 ? 1.0°
Drops below altitude 10° 05:00:11 10° 359° (N) 2,152 ? 1.1°
Sets 05:04:47 0° 40° (NE) 2,981 ? 1.9°
